Showing default

KUIPER-00413, 68928

Orbit data source: Space-Track

KUIPER-00413, 68928 is a payload satellite owned by Kuiper Systems (US) in LEO that was launched on Thu, 30 Apr 2026 UTC via an ARIANE 64 launch vehicle from the French Guiana (FRGUI). Payload-class satellites include a variety of spacecraft equipped with specific instruments for various scientific and technological missions. These include communications satellites like Starlink; space stations such as the ISS; scientific satellites like the Hubble; Earth observation satellites from companies like Planet Labs, Umbra, and HawkEye 360; GPS; miniature CubeSats for education and research; and military/defense satellites.

Loading next visibility...
Identifier
68928, 2026-098K
Orbit
LEO
Country
Flag of USUS
Related business
Manufacturer
Kuiper Systems
Mission
Operational spacecraft
Bus & Motor
KUIPER, Unknown motor
Mass
~490 kg wet, ~490 kg dry
Launch date (UTC)
2026-04-30 (1 month ago)
Launch vehicle
ARIANE 64
Launch site
French Guiana (FRGUI)
Object type
Payload
Rocket body
Debris
Shape & HBR
Unknown
Radar Cross Section
Large (>1 m²)

Expand to show TLE details & history
Last TLE update: 3 days ago

TLE from 3 days ago
0 KUIPER-00413
1 68928U 26098K   26155.11253022  .00036977  00000-0  12725-2 0  9994
2 68928  51.8766 131.8433 0015672  88.8685 271.4094 15.29595469  5327
Epoch: 2026-06-04T02:42Z
TLE epoch observation values (Epoch: 2026-06-04T02:42:02.611Z)
Latitude
-0.00004°
Longitude
-161.22907°
Altitude
477.534 km
Speed
7.628 km/s
True Right ascension
08h 47m 22s
True Declination
0° 00' 00"
Sunlit
Object was in daylight at epoch
Visualization orbit readout
Latitude
Unknown
Longitude
Unknown
Altitude
Unknown
Speed
Unknown
Apparent Right ascension
Unknown
Apparent Declination
Unknown
Sunlit
N/A
Visualization observer readout
Local Sidereal Time
03:40:01
Azimuth
Unknown
Elevation
Unknown
Doppler factor
Unknown
Orbital elements
Apogee altitude
488.23 km
Perigee altitude
466.741 km
Semi-major axis
6,855.623 km
Eccentricity
0.00157
Inclination
51.8766°
RAAN
131.8433°
Arg. of periapsis
88.8685°
True anomaly
271.22986°
Mean anomaly
271.4094°
Eccentric anomaly
271.31963°
Mean motion
3.8236 °/min
Orbital period
94.15 mins
BSTAR
0.0012725
Loading maneuver chart data...
Computing Atmospheric mass density...
Loading historical data...
Loading historical data...
Loading historical data...
Loading historical data...
Loading historical data...
Loading historical data...
Loading historical data...

Documentation

Showing up to 5 results
|